Location: Houston
(29.7631°N, 95.3631°W)
Time: 15:24:59
(UTC-05:00)

AO-85 - Visible Passes

Search period start: 19 May 2019 00:00
Search period end: 29 May 2019 00:00
Orbit: 499 x 785 km, 64.8° (Epoch: 15 May)

Date Brightness Start Highest point End Pass type
(mag) Time Alt. Az. Time Alt. Az. Time Alt. Az.
19 May ? 02:28:14 17° ENE 02:28:14 17° ENE 02:29:51 10° NE visible
19 May ? 04:05:50 33° NW 04:05:50 33° NW 04:10:29 10° N visible
20 May ? 02:52:17 33° NE 02:52:17 33° NE 02:55:14 10° NNE visible
20 May ? 04:29:53 15° WNW 04:30:43 15° NW 04:33:45 10° NNW visible
21 May ? 03:16:16 37° NNW 03:16:16 37° NNW 03:19:48 10° NNE visible
22 May ? 02:02:37 18° NE 02:02:37 18° NE 02:04:03 10° NE visible
22 May ? 03:40:12 21° NW 03:40:12 21° NW 03:43:38 10° N visible
23 May ? 02:26:30 28° NNE 02:26:30 28° NNE 02:28:57 10° NNE visible
24 May ? 02:50:20 25° NNW 02:50:20 25° NNW 02:53:09 10° N visible
25 May ? 01:36:31 19° NE 01:36:31 19° NE 01:37:57 10° NNE visible
25 May ? 03:14:06 14° NW 03:14:06 14° NW 03:16:18 10° NNW visible
26 May ? 02:00:14 24° N 02:00:14 24° N 02:02:29 10° NNE visible
27 May ? 00:46:19 12° NE 00:46:19 12° NE 00:46:46 10° NE visible
27 May ? 02:23:54 18° NNW 02:23:54 18° NNW 02:26:14 10° N visible
28 May ? 01:09:55 21° NNE 01:09:55 21° NNE 01:11:38 10° NNE visible
